This is the latest recevied weather packets stored in our database for station/object HI6LT. If no packets are shown the sender has not sent any weather packets the latest 10 day(s).
| Time | Temp. | Humidity | Pressure | Rain* | Wind** | Luminosity | Snow |
|---|---|---|---|---|---|---|---|
| 1777549678 | 14.44° C | 97% | 1032.9 hPa | 0 mm | - | - | - |
| 1777549298 | 14.44° C | 97% | 1032.8 hPa | 0 mm | - | - | - |
| 1777548983 | 13.89° C | 96% | 1031.4 hPa | 0 mm | - | - | - |
| 1777547497 | 14.44° C | 96% | 1032.3 hPa | 0 mm | - | - | - |
| 1777546977 | 13.89° C | 96% | 1031.9 hPa | 0 mm | - | - | - |
| 1777545705 | 13.89° C | 97% | 1031.9 hPa | 0 mm | - | - | - |
| 1777544274 | 13.89° C | 96% | 1031.5 hPa | 0 mm | - | - | - |
| 1777543904 | 13.89° C | 96% | 1031.4 hPa | 0 mm | - | - | - |
| 1777542779 | 13.89° C | 98% | 1030.8 hPa | 0 mm | - | - | - |
| 1777542103 | 13.89° C | 96% | 1031 hPa | 0 mm | - | - | - |
| 1777541573 | 13.89° C | 96% | 1030.8 hPa | 0 mm | - | - | - |
| 1777541183 | 13.89° C | 98% | 1031.1 hPa | 0 mm | - | - | - |
| 1777540302 | 14.44° C | 95% | 1030.8 hPa | 0 mm | - | - | - |
| 1777538871 | 13.89° C | 98% | 1030.9 hPa | 0 mm | - | - | - |
| 1777538622 | 13.33° C | 98% | 1031.3 hPa | 0 mm | - | - | - |
| 1777538500 | 13.89° C | 98% | 1030.8 hPa | 0 mm | - | - | - |
| 1777536808 | 13.33° C | 98% | 1031.7 hPa | 0 mm | - | - | - |
| 1777536700 | 13.89° C | 98% | 1031.1 hPa | 0 mm | - | - | - |
| 1777536179 | 13.89° C | 98% | 1031.1 hPa | 0 mm | - | - | - |
| 1777534979 | 13.89° C | 98% | 1032.1 hPa | 0 mm | - | - | - |
| 1777534897 | 13.33° C | 98% | 1031.3 hPa | 0 mm | - | - | - |
| 1777533477 | 13.33° C | 98% | 1031.6 hPa | 0 mm | - | - | - |
| 1777533100 | 13.89° C | 98% | 1032.3 hPa | 0 mm | - | - | - |
| 1777533097 | 13.33° C | 98% | 1031.7 hPa | 0 mm | - | - | - |
| 1777531379 | 13.89° C | 99% | 1033 hPa | 0 mm | - | - | - |
* Rain latest hour (hover to see other rain measurements)
** Current wind speed in m/s (hover to see current wind gust speed)